Regional Weather Roundup
Issued by NWS Tiyan, Guam

Home | Current Version | Previous Version | Text Only | Print | Product List | Glossary On
Versions: 1 2 3 4 5 6 7 8 9 10 11 12 13 14 15 16 17 18 19 20 21 22 23 24 25 26 27 28 29 30 31 32 33 34 35 36 37 38 39 40 41 42 43 44 45 46 47 48 49 50
000
ASGM40 PGUM 180412
RWRGUM
WEATHER ROUNDUP FOR THE MARIANAS
NATIONAL WEATHER SERVICE TIYAN GU
200 PM CHST WED OCT 18 2017

GUZ001>004-180500-
MARIANA ISLANDS-

CITY           SKY/WX    TMP DP  RH WIND       PRES   REMARKS
GUAM AIRPORT   PTSUNNY   81  79  94 S10G22    29.76F
ANDERSEN AFB   MOSUNNY   79  77  94 S21       29.75F
ROTA AIRPORT   CLOUDY    77  75  94 S13G22    29.73F
TINIAN AP      LGT RAIN  77  75  94 S14G25    29.68F
SAIPAN AP      CLOUDY    79  79 100 S21G29    29.71R

$$




USA.gov is the U.S. government's official web portal to all federal, state and local government web resources and services.